Location: Most
(50.5133°N, 13.6207°E)
Time: 20:45:10
(UTC+02:00)

ISS - Pass Details

Date: 22 May 2025
Orbit: 415 x 417 km, 51.6° (Epoch: 16 June)

Event Time Altitude Azimuth Distance (km) Brightness Sun altitude
Rises 23:04:34 0° 283° (WNW) 2,360 0.7 -14.3°
Reaches altitude 10° 23:07:05 10° 264° (W) 1,493 -0.7 -14.5°
Maximum altitude 23:09:29 18° 219° (SW) 1,083 -1.9 -14.7°
Enters shadow 23:09:59 18° 207° (SSW) 1,103 -2.0 -14.7°
